AO-07 1 07530U 74089B 20120.95383351 -.00000021 00000-0 15450-3 0 9997 2 07530 101.7958 090.9738 0012589 096.9193 297.5381 12.53643165079913 UO-11 1 14781U 84021B 20121.32185889 .00000071 00000-0 14749-4 0 9993 2 14781 97.5928 135.6844 0008621 10.3423 349.7967 14.83161193945699 LO-19 1 20442U 90005G 20121.12298907 .00000020 00000-0 23912-4 0 9993 2 20442 098.6882 068.2188 0010777 300.5994 059.4127 14.32951279581634 HUBBLE 1 20580U 90037B 20120.90205311 .00000484 00000-0 18463-4 0 9992 2 20580 028.4696 280.7861 0002554 290.6923 204.6943 15.09378526448719 MET-2/21 1 22782U 93055A 20121.36790553 .00000057 00000-0 37743-4 0 9997 2 22782 82.5472 271.7375 0022573 13.4001 45.7160 13.83825356346663 AO-27 1 22825U 93061C 20121.23654278 -.00000004 00000-0 16450-4 0 9996 2 22825 098.9242 122.4744 0008906 151.0668 209.1009 14.30083496386926 IO-26 1 22826U 93061D 20121.23426161 -.00000001 00000-0 17366-4 0 9999 2 22826 098.9181 122.4247 0009621 140.3768 219.8119 14.30418756387151 FO-29 1 24278U 96046B 20121.17898061 -.00000013 00000-0 20078-4 0 9990 2 24278 98.5768 237.3496 0351120 139.7562 223.0146 13.53097563170601 NOAA-15 1 25338U 98030A 20121.15888698 .00000050 00000-0 39359-4 0 9998 2 25338 98.7214 146.4452 0011191 48.3965 311.8172 14.25961394142350 GO-32 1 25397U 98043D 20120.88179687 -.00000003 00000-0 17923-4 0 9999 2 25397 098.7249 062.7579 0001316 149.9991 210.1263 14.23683774132642 ISS 1 25544U 98067A 20121.76658678 .00001581 00000-0 36434-4 0 9998 2 25544 51.6453 223.1682 0001350 209.1328 285.8413 15.49335729224663 NO-44 1 26931U 01043C 20121.13924467 -.00000017 00000-0 25099-4 0 9999 2 26931 067.0509 267.0731 0005798 267.2862 092.7576 14.30575293970166 SO-50 1 27607U 02058C 20121.25053188 -.00000025 00000-0 17051-4 0 9991 2 27607 064.5542 161.7460 0054070 190.1420 169.8596 14.75629641933619 CO-55 1 27844U 03031E 20121.24153210 .00000055 00000-0 44319-4 0 9991 2 27844 098.6833 129.7019 0009660 188.0172 172.0852 14.22234239873242 CO-57 1 27848U 03031J 20120.97269022 .00000036 00000-0 36247-4 0 9993 2 27848 98.6902 129.9895 0009270 201.4325 158.6465 14.21821400873087 RS-22 1 27939U 03042A 20121.36394454 .00000093 00000-0 25229-4 0 9999 2 27939 98.0824 256.8421 0013863 141.4166 218.8039 14.66854583886963 NOAA-18 1 28654U 05018A 20121.20770856 .00000074 00000-0 64867-4 0 9996 2 28654 099.0483 177.1747 0014236 011.7705 348.3796 14.12506541770105 CO-58 1 28895U 05043F 20121.08519124 .00000135 00000-0 34815-4 0 9994 2 28895 098.0017 258.8159 0018128 075.1572 285.1637 14.63761682773535 Falconsat-3 1 30776U 07006E 20120.98938577 .00002518 00000-0 67953-4 0 9997 2 30776 35.4341 230.0384 0001677 105.2415 254.8497 15.37617435729373 CO-65 1 32785U 08021C 20121.13154989 .00000238 00000-0 31247-4 0 9996 2 32785 097.5713 111.2800 0011600 297.0627 062.9407 14.88455616650684 AAUSAT2 1 32788U 08021F 20121.06264043 .00000102 00000-0 14247-4 0 9995 2 32788 097.4924 127.7126 0010723 211.5772 148.4807 14.95023584652083 DO-64 1 32789U 08021G 20121.08458657 .00001299 00000-0 89132-4 0 9997 2 32789 097.4229 165.5680 0013678 118.7862 241.4742 15.07631826654528 CO-66 1 32791U 08021J 20121.21584140 .00000376 00000-0 43308-4 0 9992 2 32791 97.5402 117.5005 0011675 262.7569 97.2323 14.91026130651271 RS-30 1 32953U 08025A 20121.34823031 .00000037 00000-0 19437-3 0 9994 2 32953 82.5003 307.8292 0019447 156.5197 203.6771 12.43095338541657 PRISM 1 33493U 09002B 20121.06181039 .00000278 00000-0 29693-4 0 9997 2 33493 098.1422 059.3571 0013815 211.2843 148.7557 14.97002389612468 NOAA-19 1 33591U 09005A 20121.20816990 .00000045 00000-0 49952-4 0 9998 2 33591 099.1968 125.2993 0013492 207.4237 152.6223 14.12405211578327 TISAT-1 1 36799U 10035E 20121.12896797 .00000347 00000-0 40957-4 0 9991 2 36799 098.1907 289.5568 0013451 125.1761 235.0718 14.91330491531729 JUGNU 1 37839U 11058B 20120.98750845 .00000299 00000-0 17228-4 0 9990 2 37839 019.9604 216.6832 0018749 213.9416 304.2082 14.12678395441929 SRMSAT 1 37841U 11058D 20121.17555556 .00000320 00000-0 30568-4 0 9994 2 37841 019.9723 278.8723 0011895 073.2746 278.8149 14.10657081441333 AO-71 1 37854U 11061E 20121.17068835 .00001030 00000-0 59552-4 0 9994 2 37854 101.7007 187.5213 0158739 205.3090 154.0287 15.07165512464659 HRBE 1 37855U 11061F 20121.15136482 .00000733 00000-0 44197-4 0 9995 2 37855 101.7146 184.6718 0171280 218.2273 140.6694 15.06182732464402 HORYU-2 1 38340U 12025D 20121.14116908 .00000164 00000-0 31794-4 0 9993 2 38340 098.2853 173.4919 0011344 188.5162 171.5855 14.75839404417428 RS-40 1 38735U 12041C 20121.22048388 .00000055 00000-0 33039-3 0 9996 2 38735 82.4814 30.7381 0016056 268.9849 90.9409 12.42579934351861 BEESAT-3 1 39135U 13015F 20121.15334651 .00000795 00000-0 48024-4 0 9998 2 39135 064.8650 097.3985 0039863 255.9893 103.6800 15.18095481387887 BEESAT-2 1 39136U 13015G 20121.04972202 .00001095 00000-0 63832-4 0 9995 2 39136 64.8662 102.5387 0029180 281.3598 78.4250 15.17478147388165 ZACUBE-1 1 39417U 13066B 20121.13360875 .00000237 00000-0 35837-4 0 9991 2 39417 097.5650 121.8464 0060449 076.7436 284.0510 14.81257421347885 TRITON-1 1 39427U 13066M 20121.15167893 .00000188 00000-0 38163-4 0 9999 2 39427 097.7214 084.7774 0112400 232.1685 126.9307 14.67985644344574 GOMX-1 1 39430U 13066Q 20121.26271002 .00000239 00000-0 52443-4 0 9997 2 39430 97.7874 62.7109 0150690 337.0060 22.4446 14.59384273342779 LO-74 1 39440U 13066AA 20121.35757192 .00000217 00000-0 36924-4 0 9999 2 39440 97.6285 106.5258 0081195 135.5739 225.2023 14.75994556346681 AO-73 1 39444U 13066AE 20121.02406668 .00000294 00000-0 42174-4 0 9995 2 39444 097.5597 123.9457 0059520 069.7614 290.9986 14.82106043346198 SPROUT 1 39770U 14029E 20121.26029649 .00000664 00000-0 78951-4 0 9996 2 39770 97.8916 227.7586 0009974 121.7482 238.4759 14.87711202321893 DUCHIFAT-1 1 40021U 14033M 20121.22515614 .00000518 00000-0 58309-4 0 9993 2 40021 097.9408 052.1722 0014373 086.3753 273.9108 14.90876056318700 NANOSATCBR1 1 40024U 14033Q 20121.08691488 .00000387 00000-0 45937-4 0 9991 2 40024 097.9262 048.5684 0013672 090.8099 269.4685 14.90049235318038 DTUSAT-2 1 40030U 14033W 20121.22595274 .00000221 00000-0 29640-4 0 9990 2 40030 097.9030 043.1154 0013407 093.3030 266.9721 14.88695542317835 EO-80 1 40032U 14033Y 20121.04152634 .00000248 00000-0 32634-4 0 9997 2 40032 097.9037 042.9334 0013351 094.5187 265.7555 14.88643485317780 ANTELSAT 1 40034U 14033AA 20121.14443478 .00000195 00000-0 36028-4 0 9991 2 40034 097.7207 339.1392 0059208 153.4842 206.9417 14.74240117314767 VELOX-1 1 40057U 14034E 20121.36181900 .00000305 00000-0 50156-4 0 9991 2 40057 98.2716 257.0283 0009671 303.4771 56.5519 14.77849689314536 DAURIA DX 1 1 40071U 14037C 20121.42408901 .00000085 00000-0 18464-4 0 9991 2 40071 98.4579 297.1744 0007275 294.8196 65.2260 14.81355481314144 HODOYOSHI-1 1 40299U 14070B 20121.32626809 .00000639 00000-0 29187-4 0 9997 2 40299 97.3227 199.1769 0013247 13.5354 52.6817 15.24024644304486 CHUBUSAT-1 1 40300U 14070C 20121.29220363 .00000567 00000-0 27359-4 0 9990 2 40300 97.2901 191.8852 0020660 26.6530 13.6206 15.22462026304181 QSAT-EOS 1 40301U 14070D 20121.34815392 .00001672 00000-0 65644-4 0 9996 2 40301 97.2938 196.8863 0025218 2.9243 61.3309 15.26829308304594 FIREBIRD FU3 1 40377U 15003B 20121.20746968 .00002736 00000-0 10750-3 0 9992 2 40377 099.0990 171.5353 0125282 115.0875 246.3418 15.19903515289973 FIREBIRD FU4 1 40378U 15003C 20121.38971127 .00002686 00000-0 10552-3 0 9993 2 40378 99.0993 171.8503 0125458 114.3583 247.0804 15.19919989290016 GRIFEX 1 40379U 15003D 20121.37595083 .00001755 00000-0 76649-4 0 9992 2 40379 99.1072 164.0272 0134015 138.2771 222.8772 15.16289340289567 NO-84 1 40654U 15025D 20120.22200498 .00010437 00000-0 12508-3 0 9178 2 40654 54.9849 167.5065 0122385 61.0929 300.2308 15.53085509161373 DEORBITSAIL 1 40719U 15032E 20121.19799453 .00000374 00000-0 60136-4 0 9999 2 40719 97.8755 11.0157 0016800 9.2800 350.8718 14.76971275258975 NUDT-PHONESAT 1 40900U 15049B 20121.33207063 .00002213 00000-0 94306-4 0 9996 2 40900 97.4319 132.7055 0013428 146.0287 329.5723 15.23937726255869 XW-2A 1 40903U 15049E 20121.38151916 .00002285 00000-0 53762-4 0 9999 2 40903 97.2923 170.2899 0015032 79.4495 342.9687 15.42932813259064 XW-2C 1 40906U 15049H 20121.33290863 .00000769 00000-0 43402-4 0 9997 2 40906 97.4770 123.3943 0014741 174.4444 299.4958 15.16026143254966 XW-2D 1 40907U 15049J 20121.33394797 .00000870 00000-0 48361-4 0 9991 2 40907 97.4753 123.0951 0014154 171.0971 302.7754 15.16253033254984 LILACSAT-2 1 40908U 15049K 20121.33266003 .00000586 00000-0 35787-4 0 9992 2 40908 97.4906 121.5119 0015638 182.1153 291.4594 15.14015346254715 XW-2E 1 40909U 15049L 20121.31123451 .00000890 00000-0 46554-4 0 9992 2 40909 97.4642 126.4709 0013797 162.7600 322.9063 15.18349975255227 XW-2F 1 40910U 15049M 20121.31029860 .00000875 00000-0 46439-4 0 9998 2 40910 97.4680 125.5724 0015037 162.2437 313.1909 15.17860024255032 XW-2B 1 40911U 15049N 20121.31628155 .00000622 00000-0 35600-4 0 9999 2 40911 97.4763 123.7699 0013945 172.5262 305.3940 15.16177666254873 DCBB 1 40912U 15049P 20121.31617668 .00001072 00000-0 52472-4 0 9993 2 40912 97.4500 129.6760 0015844 141.6213 343.6489 15.20242466255409 TW-1C 1 40926U 15051B 20121.28694542 .00022383 00000-0 23697-3 0 9997 2 40926 97.0885 172.7911 0004239 259.6194 166.1530 15.64143543259499 TW-1A 1 40928U 15051D 20121.33764524 .00003183 00000-0 75521-4 0 9994 2 40928 97.1132 150.3360 0010923 13.0436 110.6273 15.42384096257958 IO-86 1 40931U 15052B 20120.02039352 -.00000221 00000-0 -12022-3 0 9996 2 40931 5.9971 327.9084 0013935 297.0073 299.9149 14.76631531247937 LQSat 1 40958U 15057A 20121.09564160 .00000006 00000-0 86078-5 0 9991 2 40958 097.8564 186.0340 0016921 308.2326 051.7359 14.73116675245396 ATHENOXAT-1 1 41168U 15077C 20121.08726083 .00001965 00000-0 67368-4 0 9995 2 41168 14.9887 56.2609 0011459 175.1870 184.8562 15.14295902242006 ChubuSat-2 1 41338U 16012B 20120.86719863 .00000344 00000-0 20032-4 0 9994 2 41338 031.0036 295.2559 0013800 354.4873 005.5609 15.00279980230435 ChubuSat-3 1 41339U 16012C 20120.86718959 .00000306 00000-0 17011-4 0 9991 2 41339 31.0127 292.9518 0013789 2.1090 357.9607 15.00445884230430 Horyu-4 1 41340U 16012D 20120.83678243 .00000504 00000-0 31440-4 0 9993 2 41340 031.0053 281.3894 0013896 025.3424 334.7891 15.01475653230566 OUFTI-1 1 41458U 16025C 20121.20511183 .00000826 00000-0 45290-4 0 9993 2 41458 98.0996 229.2453 0164049 12.7097 347.8188 15.06752479220214 e-st@r-II 1 41459U 16025D 20121.36975422 .00001671 00000-0 87784-4 0 9994 2 41459 98.0979 228.8700 0164994 14.0121 346.5603 15.06326295220208 AAUSAT4 1 41460U 16025E 20121.31411624 .00001669 00000-0 85264-4 0 9998 2 41460 98.0953 230.9725 0154200 3.4892 356.7370 15.08579364220381 LO-87 1 41557U 16033B 20121.37620423 .00001259 00000-0 48861-4 0 9996 2 41557 97.4020 211.9193 0011924 256.2204 103.7708 15.27921342218430 NuSat2 1 41558U 16033C 20121.20756795 .00001421 00000-0 51684-4 0 9999 2 41558 097.4070 213.8757 0010981 254.0765 105.9266 15.29894139218510 Lapan A3 1 41603U 16040E 20121.35114269 .00000231 00000-0 13885-4 0 9997 2 41603 97.3131 176.3883 0014046 17.9651 112.5452 15.19826154213839 Swayam 1 41607U 16040J 20121.20966653 .00001527 00000-0 65582-4 0 9997 2 41607 097.3216 181.7093 0013070 005.1489 354.9880 15.24119679214071 Pratham 1 41783U 16059A 20121.12008663 .00000048 00000-0 18292-4 0 9994 2 41783 098.0210 177.9271 0034940 107.9479 252.5537 14.63051196191811 AlSat 1N 1 41789U 16059G 20121.11089900 .00000071 00000-0 22218-4 0 9991 2 41789 98.0237 180.6228 0029709 95.9270 264.5328 14.64313747191951 ScatSat 1 41790U 16059H 20121.26125456 .00000011 00000-0 13526-4 0 9992 2 41790 98.1657 162.9691 0007072 71.6109 288.5856 14.50908342190236 TY-1 1 41844U 16066D 20121.33846505 .00000890 00000-0 38706-4 0 9995 2 41844 97.4042 130.0469 0015634 147.6646 337.3885 15.24780344192934 Pegasus-1 1 41846U 16066F 20121.13150768 .00000201 00000-0 40668-4 0 9990 2 41846 098.6666 170.6633 0367177 017.2898 344.0415 14.37748714182028 CAS-2T 1 41847U 16066G 20121.19846968 .00000041 00000-0 16662-4 0 9990 2 41847 098.6594 171.2093 0365929 012.9074 348.1176 14.38059810182489 EO-88 1 42017U 17008BX 20121.10464297 .00001660 00000-0 66611-4 0 9996 2 42017 097.3629 189.3671 0007685 125.1009 235.0951 15.26371536178179 CAS-4B 1 42759U 17034B 20121.31940943 .00000259 00000-0 29220-4 0 9996 2 42759 43.0196 291.5146 0009755 84.8480 340.3270 15.09802175158694 CAS-4A 1 42761U 17034D 20121.33290865 .00000220 00000-0 26792-4 0 9991 2 42761 43.0194 290.7692 0010334 84.9203 343.1747 15.09880363158696 UCLSat 1 42765U 17036A 20121.14402753 .00001235 00000-0 54712-4 0 9997 2 42765 097.3054 176.6728 0011049 187.5528 172.5544 15.23425980159228 NIUSat 1 42766U 17036B 20121.20183805 .00000998 00000-0 47066-4 0 9998 2 42766 097.3052 174.3324 0015381 183.1608 176.9534 15.21640748158357 LituanicaSAT 2 1 42768U 17036D 20121.20302828 .00002233 00000-0 95138-4 0 9995 2 42768 097.3106 176.6307 0014849 179.1156 181.0110 15.23899262158497 Aalto 1 1 42775U 17036L 20121.18963833 .00000781 00000-0 37358-4 0 9995 2 42775 097.3033 174.6696 0013757 182.0117 178.1066 15.21774627158335 URSA MAIOR 1 42776U 17036M 20121.11889435 .00000883 00000-0 41652-4 0 9999 2 42776 097.3045 174.8648 0013579 181.9211 178.1976 15.21950507158336 Max Valier Sat 1 42778U 17036P 20121.10372880 .00000984 00000-0 45318-4 0 9996 2 42778 097.3097 176.0658 0012115 184.0915 176.0224 15.22537829158376 Pegasus 1 42784U 17036V 20121.09383428 .00001181 00000-0 52906-4 0 9992 2 42784 097.3061 176.3326 0011568 189.1263 170.9766 15.23119436158412 NUDATSat 1 42787U 17036Y 20121.38851078 .00001718 00000-0 72940-4 0 9994 2 42787 97.3119 177.9062 0009670 188.5743 171.5335 15.24379774158378 SUCHAI 1 1 42788U 17036Z 20120.93822913 .00001428 00000-0 62373-4 0 9998 2 42788 097.3067 176.7252 0011158 187.7158 172.3910 15.23650212158493 SKCUBE 1 42789U 17036AA 20121.17644095 .00001303 00000-0 57446-4 0 9996 2 42789 097.3063 176.8244 0011051 187.0678 173.0406 15.23500492158441 VZLUSAT 1 1 42790U 17036AB 20121.18021152 .00001782 00000-0 75549-4 0 9997 2 42790 097.3086 177.6984 0010660 184.4551 175.6594 15.24370499158498 VENTA 1 1 42791U 17036AC 20120.88731275 .00001295 00000-0 57116-4 0 9997 2 42791 097.3060 176.5876 0010665 188.4385 171.6674 15.23488593158391 Robusta 1B 1 42792U 17036AD 20121.20182814 .00001297 00000-0 56886-4 0 9999 2 42792 097.3065 177.0855 0010627 187.0413 173.0676 15.23686777158476 D-SAT 1 42794U 17036AF 20120.79572487 .00000238 00000-0 25834-4 0 9996 2 42794 97.4986 155.8497 0126675 166.7321 193.7283 14.91256688155445 TechnoSat 1 42829U 17042E 20121.23481154 .00000213 00000-0 26835-4 0 9997 2 42829 097.5264 005.2620 0015787 085.9967 274.3057 14.91085496152101 QIKCOM-1 1 42983U 98067NF 20121.36984670 .00003817 00000-0 50249-4 0 9998 2 42983 51.6379 187.8277 0003177 235.8320 124.2373 15.61220313142777 AO-91 1 43017U 17073E 20121.01316340 .00000291 00000-0 28440-4 0 9991 2 43017 097.7246 035.1168 0256363 207.9110 150.8154 14.78893515132002 EcAMSat 1 43019U 98067NG 20121.32545919 .00007206 00000-0 75709-4 0 9998 2 43019 51.6395 175.6084 0002972 225.0813 134.9942 15.65558210225256 PICSAT 1 43132U 18004X 20121.19799536 .00001430 00000-0 61446-4 0 9994 2 43132 97.4496 192.8307 0008591 214.6961 145.3716 15.24305714127702 AO-92 1 43137U 18004AC 20121.16179613 .00001061 00000-0 46695-4 0 9993 2 43137 097.4482 192.6445 0008117 216.8183 143.2498 15.24036256127691 TianYi 2 1 43155U 18008A 20121.35995944 .00000520 00000-0 34352-4 0 9997 2 43155 97.4484 191.6701 0016447 318.5520 170.9319 15.11569301125658 Zhou Enlai 1 43156U 18008B 20121.37630271 .00000464 00000-0 31446-4 0 9997 2 43156 97.4528 191.5394 0013550 318.2103 174.5517 15.11107222125617 TianYi 6 1 43158U 18008D 20121.43261667 .00000519 00000-0 35153-4 0 9995 2 43158 97.4481 190.7116 0012828 316.7031 104.8038 15.10648718125578 S-Net G 1 43186U 18014G 20121.18223845 -.00000198 00000-0 -12247-4 0 9995 2 43186 097.6972 029.7981 0012033 032.8479 327.3488 14.96792752122475 S-Net H 1 43187U 18014H 20121.18205795 -.00000193 00000-0 -11762-4 0 9996 2 43187 097.6970 029.7778 0012034 032.8026 327.3941 14.96792693122475 S-Net J 1 43188U 18014J 20120.98136813 -.00000156 00000-0 -85728-5 0 9991 2 43188 097.6973 029.6082 0012059 033.5962 326.6022 14.96792495122449 S-Net K 1 43189U 18014K 20121.18232231 -.00000204 00000-0 -12736-4 0 9998 2 43189 097.6970 029.7737 0012029 032.7770 327.4195 14.96791812121025 FMN 1 1 43192U 18015A 20121.37826979 .00002118 00000-0 86486-4 0 9999 2 43192 97.4357 251.1266 0014152 257.6841 176.9354 15.25445541124575 Shaonian Xing 1 43199U 18015H 20121.37736021 .00001479 00000-0 60879-4 0 9991 2 43199 97.4128 249.5235 0015231 269.1263 165.3653 15.25647154124635 1KUNS-PF 1 43466U 98067NP 20121.29034545 .00155498 20432-4 42053-3 0 9995 2 43466 51.6256 146.2948 0006233 23.7751 336.3543 15.93939794112812 UBAKUSAT 1 43467U 98067NQ 20121.36402274 .00023848 00000-0 17344-3 0 9995 2 43467 51.6324 168.8279 0001031 8.8614 351.2402 15.73217522112534 EnduroSat One 1 43551U 98067NZ 20121.15374547 .00040290 00000-0 24032-3 0 9999 2 43551 051.6340 168.8918 0004121 317.9199 042.1485 15.77484988102746 EQUISat 1 43552U 98067PA 20121.20682523 .00022522 00000-0 17202-3 0 9991 2 43552 051.6344 176.1289 0004362 296.2923 063.7626 15.72088941102611 UiTMSat 1 1 43589U 98067PD 20120.86171112 .00028979 00000-0 20120-3 0 9994 2 43589 051.6303 176.6546 0004493 313.0131 047.0491 15.74175051098318 Maya 1 1 43590U 98067PE 20120.53719808 .00030839 00000-0 21387-3 0 9994 2 43590 51.6303 178.2479 0004618 311.3029 48.7572 15.74165653 98190 Bhutan 1 1 43591U 98067PF 20121.14862691 .00032185 00000-0 22159-3 0 9996 2 43591 051.6320 174.8882 0004644 314.0524 046.0093 15.74310626098291 SiriusSat 1 1 43595U 98067PG 20121.20088674 .00027380 00000-0 20700-3 0 9999 2 43595 51.6347 178.8658 0001591 315.5088 83.8014 15.72213419 97424 SiriusSat 2 1 43596U 98067PH 20121.20665826 .00025577 00000-0 19461-3 0 9998 2 43596 51.6352 179.5982 0001808 294.7705 165.5745 15.72102560 97416 Tanusha-3 1 43597U 98067PJ 20121.12459496 .00061439 00000-0 32480-3 0 9997 2 43597 051.6291 170.0607 0003778 346.0910 013.9987 15.79990070097531 SurfSat 1 43614U 18070B 20121.09624571 .00002918 00000-0 75614-4 0 9991 2 43614 093.0209 134.6071 0016448 154.4717 205.7353 15.38967714091047 CP-7 DAVE 1 43615U 18070C 20121.12329361 .00002625 00000-0 68312-4 0 9997 2 43615 093.0213 134.6114 0016606 154.0756 206.1334 15.38834105091047 ELFIN-B 1 43616U 18070D 20121.20443095 .00003323 00000-0 82968-4 0 9997 2 43616 093.0175 134.5733 0017068 155.6771 204.5293 15.40078805091099 ELFIN-A 1 43617U 18070E 20121.11328131 .00004272 00000-0 10604-3 0 9992 2 43617 093.0228 135.0073 0016540 152.6369 207.5761 15.40246071091080 STARS-Me Mother 1 43640U 98067PQ 20120.90303951 .00011337 00000-0 11988-3 0 9997 2 43640 051.6344 194.3369 0003282 214.8500 145.2281 15.64705607089126 CubeBel 1 1 43666U 18083E 20121.32851448 .00001133 00000-0 58645-4 0 9996 2 43666 97.4921 148.2607 0015402 161.7047 326.9227 15.18171842 83319 Changshagaoxin 1 43669U 18083H 20121.26905228 .00000781 00000-0 42615-4 0 9996 2 43669 97.4811 146.5422 0011608 153.4399 206.7432 15.17226990 83225 Ten-Koh 1 43677U 18084G 20121.07956438 .00000202 00000-0 26618-4 0 9997 2 43677 097.8759 238.2763 0015063 322.1958 037.8200 14.90274077081730 PO-101 1 43678U 18084H 20121.37637195 .00000364 00000-0 41955-4 0 9997 2 43678 97.8759 239.8006 0009638 344.3880 15.7023 14.91626793 81857 IRVINE 01 1 43693U 18088D 20121.25826538 .00002691 00000-0 11324-3 0 9997 2 43693 85.0324 108.9126 0020360 106.3789 253.9694 15.22670803 81518 QO-100 1 43700U 18090A 20121.05118973 .00000143 00000-0 00000 0 0 9999 2 43700 0.0128 232.6924 0001093 153.7111 236.2271 1.00272235 5467 Reaktor Hello World 1 43743U 18096AA 20116.88567145 .00001354 00000-0 53272-4 0 9995 2 43743 097.4229 191.0203 0016748 318.2621 041.7256 15.27295233078370 MinXSS-2 1 43758U 18099A 20121.16222255 .00000467 00000-0 47112-4 0 9991 2 43758 97.7089 193.8848 0015342 357.1794 2.9338 14.95636711 76732 AO-95 1 43770U 18099N 20121.11656529 -.00000053 00000-0 36462-6 0 9995 2 43770 097.7080 193.3330 0014543 004.6255 355.5097 14.94959924076693 RANGE-B 1 43772U 18099Q 20121.14278761 .00000763 00000-0 74716-4 0 9997 2 43772 97.7146 193.8133 0013638 352.1272 7.9733 14.95140306 76690 RANGE-A 1 43773U 18099R 20121.17356787 -.00000151 00000-0 -85551-5 0 9999 2 43773 97.7025 193.0667 0013237 352.1606 7.9406 14.94947269 76696 MOVE-II 1 43780U 18099Y 20121.27935030 .00000952 00000-0 91360-4 0 9993 2 43780 97.7083 193.6719 0013271 2.9591 357.1706 14.95355675 76714 SNUSat 2 1 43782U 18099AA 20121.15343658 .00000628 00000-0 62233-4 0 9998 2 43782 97.7079 193.5635 0012308 352.6705 7.4334 14.95232410 76701 SnugLite 1 43784U 18099AC 20121.12493249 .00000146 00000-0 18397-4 0 9996 2 43784 97.7041 193.3754 0014879 358.9572 1.1615 14.95324091 76719 ITASat 1 1 43786U 18099AE 20121.12450738 .00000054 00000-0 10087-4 0 9990 2 43786 97.7094 193.7256 0014985 357.8756 2.2399 14.95302302 76712 EAGLET 1 1 43790U 18099AJ 20121.19570261 .00000169 00000-0 20341-4 0 9997 2 43790 097.7083 194.0289 0013412 002.9290 357.2007 14.95683182076436 ESEO 1 43792U 18099AL 20121.20275369 .00000264 00000-0 28957-4 0 9999 2 43792 097.7058 193.8835 0013103 000.1069 000.0153 14.95586696076498 CSIM 1 43793U 18099AM 20121.19443361 .00000439 00000-0 44265-4 0 9991 2 43793 097.7047 193.8291 0012555 357.4528 002.6627 14.95999899076476 Astrocast 0.1 1 43798U 18099AS 20121.19056341 -.00000073 00000-0 -14000-5 0 9995 2 43798 097.7078 194.1133 0011885 342.8125 017.2692 14.95850947076733 JO-97 1 43803U 18099AX 20121.14466159 .00000725 00000-0 70624-4 0 9994 2 43803 97.7056 193.5759 0014846 358.8720 1.2465 14.95474228 76714 Suomi 100 1 43804U 18099AY 20121.14514781 .00000715 00000-0 69709-4 0 9991 2 43804 97.7054 193.5668 0014928 358.9899 1.1290 14.95464487 76723 Al Farabi 2 1 43805U 18099AZ 20121.39074868 .00000203 00000-0 23470-4 0 9993 2 43805 97.7059 193.8792 0014978 357.4544 2.6598 14.95576707 76766 PWSat 2 1 43814U 18099BJ 20121.20528962 .00025729 00000-0 15706-2 0 9993 2 43814 097.7852 201.0343 0003625 037.1015 323.0465 15.10284641076431 CHOMPTT 1 43855U 18104G 20121.40492370 .00001107 00000-0 45385-4 0 9992 2 43855 85.0400 206.9813 0015506 224.4880 135.5076 15.22899379 76216 ISAT 1 43879U 18111D 20121.34717530 .00000559 00000-0 54628-4 0 9997 2 43879 97.7047 29.5446 0014309 49.7467 310.5003 14.96209600 71299 UWE-4 1 43880U 18111E 20121.20153398 .00000125 00000-0 16063-4 0 9990 2 43880 097.7056 029.6457 0013423 050.4301 309.8104 14.96440626073274 Sparrow 1 43881U 18111F 20121.18557770 -.00000136 00000-0 -68316-5 0 9993 2 43881 97.7068 29.6948 0013816 48.7984 311.4426 14.96504028 71277 Lume 1 1 43908U 18111AJ 20121.21428681 .00001134 00000-0 48130-4 0 9993 2 43908 097.2696 022.5600 0020121 317.6235 042.3448 15.24954206074670 FO-98 1 43933U 19003B 20121.27896038 .00000759 00000-0 35979-4 0 9992 2 43933 97.2349 172.8496 0019322 55.2912 9.2104 15.22050031 71201 FO-99 1 43937U 19003F 20121.38589414 .00001421 00000-0 60540-4 0 9994 2 43937 97.2307 174.0571 0025271 37.9666 23.2770 15.24283410 71318 Delphini 1 1 44030U 98067PW 20120.94352930 .00018121 00000-0 18826-3 0 9992 2 44030 051.6339 200.6176 0003754 278.4926 081.5643 15.64685038070919 MYSat 1 1 44045U 18092F 20121.25865125 .00003148 00000-0 97756-4 0 9991 2 44045 051.6458 276.2546 0012330 147.3991 212.7756 15.36466613067883 AstroCast 0.2 1 44083U 19018F 20121.21665746 .00000759 00000-0 36756-4 0 9993 2 44083 97.4249 182.9193 0012683 348.6303 11.4645 15.21547574 60048 AISTechSat 3 1 44103U 19018AB 20121.35271007 .00000857 00000-0 39299-4 0 9998 2 44103 97.4116 183.1917 0013512 4.1917 128.1425 15.23091968 60111 AISat 1 1 44104U 19018AC 20121.19822358 .00000911 00000-0 31562-4 0 9998 2 44104 097.4667 190.5601 0058947 025.7931 334.6228 15.30990778060425 Raavana-1 1 44329U 98067QE 20120.49283127 .00010597 00000-0 15015-3 0 9990 2 44329 51.6385 219.4576 0005507 179.6236 180.4761 15.57063480 49376 Uguisu 1 44330U 98067QF 20120.69550032 .00010376 00000-0 14753-3 0 9999 2 44330 051.6383 218.5570 0005499 178.5039 181.5971 15.56996247049380 NepaliSat-1 1 44331U 98067QG 20121.12791272 .00010357 00000-0 14667-3 0 9995 2 44331 051.6384 216.1981 0005500 183.4269 176.6686 15.57107389049464 Prox-1 1 44339U 19036A 20121.05401729 .00000995 00000-0 18681-3 0 9996 2 44339 024.0032 056.4220 0010385 343.5266 016.4893 14.52952277045083 Oculus-ASR 1 44348U 19036K 20120.95878465 .00014567 00000-0 21846-3 0 9996 2 44348 28.5171 341.1822 0370121 150.6335 211.5596 15.01845254 46506 Armadillo 1 44352U 19036P 20120.92419153 .00021450 00000-0 32228-3 0 9998 2 44352 028.5308 338.3108 0358541 154.6819 207.1788 15.04287651046486 NO-104 1 44354U 19036R 20120.92287373 .00014875 00000-0 21943-3 0 9992 2 44354 028.5311 339.1784 0367012 152.8984 209.1278 15.02827836046510 NO-103 1 44355U 19036S 20120.89631222 .00027299 00000-0 38841-3 0 9994 2 44355 028.5313 333.1158 0348010 162.7478 198.5277 15.07611512046570 CP9 1 44360U 19036X 20120.86196261 .00042107 -55151-5 49747-3 0 9991 2 44360 028.5151 322.4522 0332222 180.7272 179.2913 15.14052078046557 Move-IIb 1 44398U 19038N 20121.18409228 .00001217 00000-0 73808-4 0 9990 2 44398 097.5322 083.0466 0023717 296.0291 063.8498 15.12231155045287 SONATE 1 44400U 19038Q 20120.87669007 .00000437 00000-0 29236-4 0 9991 2 44400 97.5354 82.7616 0023779 295.1504 64.7260 15.11913633 45233 BeeSat 9 1 44412U 19038AC 20121.16630313 .00000973 00000-0 59878-4 0 9995 2 44412 097.5342 083.1162 0021322 300.3788 059.5335 15.12230041044970 JAISAT-1 1 44419U 19038F 20121.13585749 .00000870 00000-0 53263-4 0 9999 2 44419 97.5345 83.3139 0020182 299.8350 60.0874 15.12713065 45299 LightSail-2 1 44420U 19036AC 20121.19111970 .00005718 00000-0 12459-2 0 9992 2 44420 24.0100 52.6906 0011670 312.7589 47.1877 14.55276854 43278 Taurus 1 1 44530U 19059C 20121.27959385 .00001784 00000-0 51886-3 0 9995 2 44530 98.5684 201.9044 0013114 305.4620 54.5356 14.45457440 33381 MO-106 1 44830U 19084G 20121.08396712 .00055054 00000-0 37319-3 0 9998 2 44830 096.9819 349.9114 0031346 065.6541 294.7991 15.74130433022835 TRSI-Sat 1 44831U 19084H 20120.89495513 .00049134 00000-0 33549-3 0 9999 2 44831 96.9828 349.7353 0031535 65.5086 294.9462 15.73975309 22813 MO-105 1 44832U 19084J 20121.17667638 .00058374 00000-0 38249-3 0 9999 2 44832 096.9825 350.0962 0030405 064.0222 296.4170 15.74940409022854 Duchifat 3 1 44854U 19089C 20121.40297219 .00000439 00000-0 41953-4 0 9994 2 44854 36.9670 22.3119 0008042 23.8569 336.2545 14.99037184 21088 OPS-SAT 1 44878U 19092F 20121.03597553 -.00000066 00000-0 00000-0 0 9998 2 44878 097.4674 305.1368 0014797 159.9660 200.2159 15.15395936020200 FloripaSat 1 1 44885U 19093G 20121.25240819 .00000261 00000-0 39631-4 0 9993 2 44885 97.9586 197.7270 0014304 199.0679 161.0020 14.82009455 19560 RS-44 1 44909U 19096E 20121.19801016 .00000010 00000-0 00000 0 0 9993 2 44909 82.5240 27.3787 0217431 339.6534 19.6000 12.79706684 16018 SwampSat-2 1 45115U 19071E 20121.02481448 .00010406 00000-0 31701-3 0 9997 2 45115 51.6411 237.0977 0013007 242.1928 117.7736 15.34474058 13681 HuskySat-1 1 45119U 19071J 20121.17293789 .00001695 00000-0 63149-4 0 9998 2 45119 051.6428 236.5816 0011933 238.6251 121.3564 15.33421809013713 QARMAN 1 45257U 98067RA 20121.17355801 .00005374 00000-0 99871-4 0 9996 2 45257 051.6415 225.5012 0008085 181.2864 178.8105 15.50623910011010 AztechSat-1 1 45258U 98067RB 20121.17662353 .00004861 00000-0 91474-4 0 9991 2 45258 051.6411 225.5188 0006236 160.8930 199.2294 15.50508390010989 /EX